Change the Weather History Date:

Thursday, March 3, 2011

  Actual Average Record
Temperature  
Mean Temperature 45 °F 35 °F  
Max Temperature 58 °F 45 °F 79 °F (1983)
Min Temperature 32 °F 26 °F -7 °F (2014)
Degree Days  
Heating Degree Days 20 30  
Month to date heating degree days 82 91  
Since 1 July heating degree days 4786 4624  
Cooling Degree Days 0 0  
Month to date cooling degree days 0 0  
Year to date cooling degree days 0 0  
Moisture  
Dew Point 34 °F    
Average Humidity 68    
Maximum Humidity 85    
Minimum Humidity 51    
Precipitation  
Precipitation 0.00 in 0.08 in 1.11 in (1985)
Month to date precipitation 0.00 0.24  
Year to date precipitation 1.57 3.04  
Sea Level Pressure  
Sea Level Pressure 30.09 in    
Wind  
Wind Speed 10 mph (SE)    
Max Wind Speed 16 mph    
Max Gust Speed 22 mph    
Visibility 10 miles    
Events      
T = Trace of Precipitation, MM = Missing Value Source: NWS Daily Summary

Daily Weather History Graph

Daily Weather History Graph

Search for Another Location

Airport or City:

Trip Planner

Search our weather history database for the weather conditions in past years. The results will help you decide how hot, cold, wet, or windy it might be!

Date:

Astronomy

Mar. 03, 2011 Rise Set
Actual Time 6:40 AM CST 6:03 PM CST
Civil Twilight 6:13 AM CST 6:31 PM CST
Nautical Twilight 5:42 AM CST 7:02 PM CST
Astronomical Twilight 5:11 AM CST 7:34 PM CST
Moon 5:47 AM CST (3/3) 5:17 PM CST (3/3)
Length of Visible Light 12h 17m
Length of Day
11h 23m
Waning Crescent, 1% of the Moon is Illuminated
Mar 3
Waning Crescent
Mar 4
New
Mar 12
First Quarter
Mar 19
Full
Mar 26
Last Quarter

Hourly Weather History & Observations

Time (CST) Temp. Windchill Dew Point Humidity Pressure Visibility Wind Dir Wind Speed Gust Speed Precip Events Conditions
12:55 AM 33.1 °F 23.4 °F 28.0 °F 82% 30.29 in 10.0 mi ESE 13.8 mph - N/A   Clear
1:55 AM 32.0 °F 23.0 °F 28.0 °F 85% 30.27 in 10.0 mi ESE 11.5 mph - N/A   Clear
2:55 AM 32.0 °F 24.2 °F 28.0 °F 85% 30.25 in 10.0 mi ESE 9.2 mph - N/A   Clear
3:55 AM 32.0 °F 23.6 °F 28.0 °F 85% 30.22 in 10.0 mi ESE 10.4 mph - N/A   Clear
4:55 AM 32.0 °F 23.6 °F 28.0 °F 85% 30.22 in 10.0 mi ESE 10.4 mph - N/A   Clear
5:55 AM 32.0 °F 24.8 °F 28.0 °F 85% 30.23 in 10.0 mi ESE 8.1 mph - N/A   Clear
6:55 AM 32.0 °F 24.2 °F 28.0 °F 85% 30.22 in 10.0 mi ESE 9.2 mph - N/A   Clear
7:55 AM 33.1 °F 26.1 °F 28.9 °F 85% 30.22 in 10.0 mi ESE 8.1 mph - N/A   Clear
8:55 AM 36.0 °F 28.5 °F 30.0 °F 79% 30.21 in 10.0 mi SE 10.4 mph - N/A   Clear
9:55 AM 39.9 °F 32.5 °F 32.0 °F 73% 30.18 in 10.0 mi SSE 12.7 mph - N/A   Clear
10:55 AM 46.9 °F - 35.1 °F 63% 30.15 in 10.0 mi SSE 13.8 mph - N/A   Clear
11:55 AM 48.9 °F - 36.0 °F 61% 30.11 in 10.0 mi SSE 10.4 mph - N/A   Clear
12:55 PM 53.1 °F - 37.9 °F 57% 30.06 in 10.0 mi SE 12.7 mph - N/A   Clear
1:55 PM 55.9 °F - 37.9 °F 51% 30.01 in 10.0 mi SSE 13.8 mph - N/A   Clear
2:55 PM 55.0 °F - 39.0 °F 55% 29.98 in 10.0 mi SE 10.4 mph - N/A   Clear
3:55 PM 55.9 °F - 39.0 °F 53% 29.97 in 10.0 mi SE 10.4 mph - N/A   Clear
4:55 PM 57.0 °F - 39.9 °F 53% 29.96 in 10.0 mi SE 8.1 mph - N/A   Clear
5:55 PM 50.0 °F - 39.0 °F 66% 29.95 in 10.0 mi SE 6.9 mph - N/A   Clear
6:55 PM 48.9 °F - 39.0 °F 69% 29.96 in 10.0 mi East 4.6 mph - N/A   Clear
7:55 PM 48.0 °F - 39.0 °F 71% 29.95 in 10.0 mi East 8.1 mph - N/A   Partly Cloudy
8:55 PM 46.9 °F - 39.0 °F 74% 29.97 in 10.0 mi East 6.9 mph - N/A   Partly Cloudy
9:55 PM 46.4 °F 42.9 °F 39.2 °F 76% 29.95 in 10.0 mi ESE 6.9 mph - N/A   Overcast
10:55 PM 46.9 °F - 39.0 °F 74% 29.96 in 10.0 mi ESE 6.9 mph - N/A   Overcast
11:55 PM 46.9 °F - 39.0 °F 74% 29.94 in 10.0 mi ESE 6.9 mph - N/A   Overcast